Location: Amsterdam
(30.7274°N, 84.4357°W)
Time: 13:10:05
(UTC+00:00)

Tiros 1 - Pass Details

Date: 16 February 2026
Orbit: 618 x 650 km, 48.4° (Epoch: 16 March)

Event Time Altitude Azimuth Distance (km) Brightness Sun altitude
Rises 15:49:48 0° 281° (W) 2,902 10.1 38.0°
Reaches altitude 10° 15:53:09 10° 306° (NW) 1,990 9.3 38.5°
Maximum altitude 15:55:37 14° 339° (NNW) 1,724 9.0 38.8°
Drops below altitude 10° 15:58:04 10° 12° (NNE) 1,984 9.4 39.1°
Sets 16:01:25 0° 37° (NE) 2,888 10.4 39.6°
